STARLINK-11183, 60189

Orbit data source: Space-Track

STARLINK-11183, 60189 is a payload satellite owned by SpaceX/Seattle (US) in LEO that was launched on Wed, 03 Jul 2024 UTC via an FALCON 9 launch vehicle from the Air Force Eastern Test Range (AFETR). Payload-class satellites include a variety of spacecraft equipped with specific instruments for various scientific and technological missions. These include communications satellites like Starlink; space stations such as the ISS; scientific satellites like the Hubble; Earth observation satellites from companies like Planet Labs, Umbra, and HawkEye 360; GPS; miniature CubeSats for education and research; and military/defense satellites.

Loading next visibility...
Identifier
60189, 2024-124G
Orbit
LEO
Last TLE update
8 hours ago
Origin
Manufacturer
SpaceX/Seattle
Mission
Operational Commercial Communications
Bus & Motor
STARLINK V2M, Unknown motor
Mass
730 kg wet, ~700 kg dry
Launch date (UTC)
2024-07-03 (1 year ago)
Launch vehicle
FALCON 9
Launch site
Air Force Eastern Test Range (AFETR)
Object type
Payload
Rocket body
Debris
Shape & HBR
Box + 2 Pan, 29 m
Radar Cross Section
36.964 m², Large (>1 m²)

Expand to show TLE details & history

TLE from 8 hours ago
0 STARLINK-11183
1 60189U 24124G   25182.09295020 -.00002345  00000-0 -14492-4 0  9992
2 60189  53.1590 321.8507 0001047  98.3378 261.7758 15.69724395 57970
Epoch: 2025-07-01T02:13Z
TLE epoch observation values (Epoch: 2025-07-01T02:13:50.897Z)
Latitude
-0.00006°
Longitude
8.99522°
Altitude
360.702 km
Speed
7.694 km/s
True Right ascension
21h 27m 24s
True Declination
0° 00' 00"
Sunlit
Object was in full shadow at epoch
Visualization orbit readout
Latitude
24.29857°
Longitude
167.64015°
Altitude
360.137 km
Speed
7.697 km/s
Apparent Right ascension
08h 57m 59s
Apparent Declination
-7° 02' 53"
Sunlit
Object is in daylight
Visualization observer readout
Local Sidereal Time
22:08:40
Azimuth
30.438° NE
Elevation
-53.515°
Doppler factor
1
Orbital elements
Apogee altitude
360.652 km
Perigee altitude
359.241 km
Semi-major axis
6,738.083 km
Eccentricity
0.0001
Inclination
53.159°
RAAN
321.8507°
Arg. of periapsis
98.3378°
True anomaly
Unknown
Mean anomaly
261.7758°
Eccentric anomaly
Unknown
Mean motion
3.92409 °/min
Orbital period
91.74 mins
BSTAR
-0.000014492
Loading maneuver chart data...
Loading SW <> Apogee altitude chart data...
Loading historical data...
Loading historical data...
Loading historical data...
Loading historical data...
Loading historical data...
Loading historical data...
Loading historical data...

STARLINK-11183 Visibility forecast

Observer location: undefined°, undefined°

Span
Click to sort rows by Start time (UTC) header in descending order
Start Az.
Max El. time (UTC)
Max El. Az.
Max El.
End time (UTC)
End Az.
4 mins2025-07-01 11:34:12.894Z187.224° SSW2025-07-01 11:36:12.894Z127.067° SE25.798°2025-07-01 11:38:12.894Z75.3° E
|